Torna al catalogo

STARLINK-4637

AttivoComunicazioniVLEO
NORAD 53742·PAYLOAD·🇺🇸 United States

Lanciato Sep 5, 2022 da Cape Canaveral Space Force Station

Loading…

Prossimi Passaggi (prossime 24 ore)

TLE

AggiornatoSource: CelesTrak SupGP

Epoca: Sep 15, 2026, 02:26 UTC

1 53742C 22107AU  26258.10187500  .00040316  00000+0  11912-2 0  2585
2 53742  53.1576 118.8036 0001156  84.9248 262.2694 15.34368704    18

Traccia STARLINK-4637 in tempo reale con AllMySat

Download on the App Store